Wind_Speed
5 5 4 4 3 3 3 2 1 1 3 3 3 3 3 9 19 20 16 12 8 4 2 3 3 11 10 6 7 6 5 3 4 8 20 7 11 6 8 15 12 10 12 15 11
8 7 7 6 5 5 4 3 2 2 3 4 4 3 3 3 10 19 19 16 12 9 5 4 4 2 2 4 6 2 5 10 11 9 12 15 5 5 8 7 12 14 16 14 13
10 9 8 7 7 6 4 4 4 4 4 5 5 4 2 1 3 9 18 18 17 13 8 7 5 3 4 2 9 12 15 8 5 8 13 11 12 3 3 7 8 12 17 15 15
12 11 11 9 8 7 6 6 5 5 4 6 6 5 3 2 4 7 6 13 19 16 12 9 7 4 8 4 8 12 8 8 6 15 15 15 4 2 3 4 4 5 9 12 13
14 14 13 12 10 9 8 7 7 7 6 6 7 6 5 5 5 3 2 2 8 14 12 11 8 6 7 5 9 10 4 6 10 12 21 18 12 7 2 6 4 2 4 7 9
17 17 16 14 12 11 9 9 8 8 8 8 8 7 7 8 9 7 2 4 5 10 12 11 7 4 11 11 16 14 19 22 25 20 23 17 7 10 6 7 4 5 1 3 5
20 20 18 17 15 14 11 11 10 10 10 9 9 10 10 3 12 11 2 5 7 11 13 13 8 4 13 14 9 12 17 16 11 24 28 18 8 9 8 15 6 6 5 2 0
22 21 21 20 19 17 15 12 12 12 12 11 11 11 8 11 15 11 6 8 9 10 13 15 7 8 14 16 13 13 6 12 9 15 8 10 7 13 14 17 14 10 11 6 9
22 22 22 22 22 20 18 16 15 15 13 12 12 13 7 9 10 5 7 3 8 4 1 5 10 15 14 15 11 3 1 4 9 8 2 8 6 9 15 19 15 13 12 7 16
23 22 22 21 22 20 20 19 18 17 16 15 14 12 7 5 3 4 3 7 8 6 7 8 9 20 17 13 11 8 10 8 10 21 14 13 13 15 15 20 17 19 18 17 9
22 22 21 21 20 19 17 18 19 20 21 19 15 14 10 7 6 5 7 9 12 12 13 12 16 19 10 19 15 8 14 13 18 7 9 12 14 19 22 26 17 26 16 10 6
21 20 21 20 19 18 15 17 16 20 23 22 19 20 13 11 13 9 10 17 15 13 15 16 20 12 8 10 14 13 14 17 16 3 17 20 25 25 27 31 24 19 20 16 10
22 21 19 19 18 16 13 14 13 17 21 21 21 21 17 14 16 9 14 8 13 11 9 14 12 9 13 14 17 21 20 23 11 4 9 16 24 24 13 26 30 20 18 23 10
23 21 20 17 17 16 17 17 17 18 12 23 23 24 22 21 24 17 18 17 18 16 15 19 12 14 15 17 20 29 22 23 22 19 23 16 17 11 16 31 31 15 21 24 17
23 22 22 19 16 16 19 19 16 11 2 9 9 12 18 24 18 8 19 20 20 18 16 19 16 17 19 19 15 13 13 17 20 18 17 23 12 10 21 34 28 17 20 22 20
21 22 23 20 18 21 18 15 13 9 8 7 8 12 12 14 17 14 8 16 20 23 20 23 19 19 17 12 14 11 15 20 17 20 6 7 7 6 18 21 18 17 20 21 23
18 20 22 21 20 23 20 18 13 8 12 8 8 14 9 11 15 17 17 16 23 18 23 20 24 21 16 15 11 11 13 9 6 7 6 11 6 11 4 11 17 18 16 14 21
16 17 19 18 24 24 24 21 14 9 19 9 3 9 11 19 18 18 17 19 22 24 21 17 15 21 11 13 13 15 16 12 5 3 9 9 10 4 9 9 14 14 14 18 24
13 14 15 20 23 24 27 27 20 11 9 16 13 12 12 12 27 18 21 21 24 22 20 14 24 18 18 15 19 24 23 17 23 5 3 10 12 6 12 17 12 10 16 15 15
11 10 11 16 22 25 29 30 22 23 13 3 6 4 9 10 3 1 23 23 27 26 19 23 21 18 19 18 20 28 20 13 9 3 4 4 9 9 14 14 14 17 24 25 23
7 7 8 10 19 24 31 31 28 24 22 11 11 15 14 7 8 5 2 11 29 27 30 26 28 26 20 16 13 26 20 19 16 10 6 3 4 6 14 19 18 14 23 23 41
8 8 8 6 9 11 23 24 21 23 19 10 11 20 13 9 8 2 2 12 16 21 31 27 28 31 30 24 15 10 22 19 19 14 3 3 5 8 14 22 28 21 13 15 23
13 10 7 4 6 9 12 14 18 19 19 7 11 15 17 15 6 3 4 5 12 5 5 26 15 20 26 23 18 13 10 13 17 19 16 6 7 14 21 21 24 24 22 23 5
16 9 9 11 11 9 10 7 6 14 13 13 13 12 7 11 10 7 5 6 12 7 1 5 8 17 13 6 4 10 12 7 9 13 13 18 10 16 21 21 21 24 8 7 4
17 13 11 9 10 10 14 6 2 6 8 12 16 14 8 5 10 14 14 14 5 4 4 2 3 3 8 7 7 6 7 11 17 21 21 12 9 14 15 17 16 8 17 14 16
19 14 8 3 2 5 14 9 5 8 2 9 5 14 21 12 11 10 15 5 5 4 3 4 3 7 13 15 16 15 13 11 18 20 20 15 10 13 17 21 16 10 11 20 22
19 14 9 4 7 5 9 12 10 6 3 2 12 9 12 17 14 14 18 11 8 10 6 1 5 7 9 13 17 18 18 16 17 19 24 17 21 16 20 21 16 8 15 21 19
Wind_Direction
217 220 221 223 218 226 245 253 332 36 3 350 343 312 290 236 224 221 216 213 220 217 275 15 41 92 70 51 9 24 349 6 344 98 106 99 90 102 63 56 61 57 41 52 70
228 224 226 229 232 228 254 286 306 313 334 342 342 328 315 275 219 220 221 224 230 226 240 263 329 182 119 60 326 305 9 128 67 149 100 115 27 72 74 49 63 56 55 55 60
241 238 235 235 236 245 251 273 284 289 308 324 327 327 310 297 144 197 217 227 234 230 239 256 280 313 262 235 261 281 310 267 202 173 240 178 20 154 171 75 55 45 51 60 56
246 249 249 247 246 250 256 261 273 280 293 307 309 313 284 229 139 116 168 215 231 232 232 245 260 282 172 263 316 310 340 307 299 240 219 177 271 104 178 160 88 62 62 59 57
252 251 253 254 256 257 262 269 274 283 288 299 297 294 275 237 195 272 124 150 204 226 225 229 241 264 206 305 316 298 288 321 312 230 226 216 196 314 342 190 175 273 76 69 58
251 254 255 258 258 260 261 266 272 281 285 291 293 283 271 253 240 266 259 247 211 197 205 215 212 219 257 289 306 314 297 296 300 258 209 198 200 213 264 218 192 243 287 83 71
251 252 255 257 260 262 263 265 270 274 279 285 288 288 273 239 246 261 286 202 217 206 201 197 205 333 261 276 268 282 288 308 206 191 199 205 196 216 271 217 241 268 282 339 53
253 251 253 255 257 260 263 266 269 271 270 278 283 291 301 231 247 274 261 196 218 217 207 205 208 260 262 262 279 330 332 132 132 160 202 192 296 220 227 287 274 270 289 315 315
254 253 252 253 255 257 260 262 265 267 269 271 274 289 299 267 265 271 258 201 168 140 310 231 233 232 245 258 281 44 127 286 262 261 266 203 264 227 237 260 244 255 262 302 286
256 255 253 254 256 255 260 262 262 264 265 265 266 279 268 130 230 191 169 188 194 223 245 223 243 242 252 248 254 286 268 323 307 269 275 266 244 250 268 234 221 230 254 269 290
254 255 254 253 253 253 256 258 261 262 257 256 254 259 227 179 206 267 279 216 211 230 229 226 243 253 236 216 239 266 284 293 306 288 247 254 251 286 301 218 239 225 244 267 210
256 253 251 250 250 250 249 253 259 264 258 254 252 254 219 198 223 197 243 244 222 237 220 224 248 228 256 239 240 265 247 268 305 280 288 277 264 285 293 216 211 219 267 246 222
253 252 249 244 243 242 236 238 237 260 269 250 250 249 229 230 253 237 234 232 221 238 223 237 227 248 265 256 242 259 231 248 254 297 274 282 289 286 253 210 215 225 259 244 237
250 249 245 241 237 229 223 226 229 245 272 265 263 251 245 234 259 252 212 222 229 240 240 256 238 274 276 275 255 264 247 252 249 280 251 273 273 269 213 202 219 254 213 223 230
248 246 243 233 231 224 225 228 228 240 318 267 242 263 238 224 245 207 196 212 228 241 242 243 266 273 274 268 263 273 253 219 249 292 241 288 254 225 214 210 219 253 210 199 220
246 241 239 232 221 221 222 222 208 203 235 230 234 205 189 210 232 197 195 222 229 237 258 255 254 270 265 290 263 263 258 257 263 284 264 288 319 282 223 252 238 234 195 206 219
243 239 234 225 218 218 214 213 199 211 218 234 209 200 230 243 247 230 215 235 221 230 244 251 249 250 258 260 254 233 238 272 288 298 230 284 307 302 258 241 232 233 193 208 203
239 236 231 217 218 214 210 204 213 225 204 193 156 214 228 254 241 229 234 229 222 233 244 256 271 240 245 248 249 237 245 253 201 202 263 259 286 248 159 176 173 175 213 210 199
241 233 224 213 214 211 214 213 217 187 202 260 303 286 278 286 238 220 224 233 222 222 234 252 262 246 245 241 294 253 239 263 259 245 267 278 273 222 164 161 198 212 200 211 202
239 226 219 212 209 211 216 221 216 201 202 315 344 271 339 7 201 72 234 220 228 231 245 246 256 268 258 273 281 232 239 252 244 205 250 253 248 246 199 207 216 191 190 198 203
224 187 190 205 213 210 223 229 230 219 240 266 293 282 291 328 346 56 214 301 240 242 237 247 250 272 279 287 301 220 232 242 254 262 163 184 246 232 174 175 169 162 183 244 312
184 172 165 198 207 231 233 233 233 227 219 253 264 265 275 296 319 59 159 34 39 246 235 236 247 250 267 278 285 257 258 240 239 247 213 197 239 219 188 187 190 212 239 314 315
181 167 171 248 262 262 247 240 249 242 219 265 239 251 257 264 329 277 241 14 8 76 229 237 236 241 263 255 273 289 260 250 256 254 279 236 244 224 215 215 218 231 254 298 222
188 191 205 259 282 251 219 213 273 230 224 255 229 237 249 242 254 265 277 234 343 33 353 352 182 214 234 217 298 324 294 286 315 291 289 310 273 227 220 218 230 241 255 248 169
187 163 190 238 287 262 217 251 254 213 221 244 237 240 253 276 239 250 255 255 294 349 353 42 321 281 227 255 268 294 291 272 311 297 295 288 236 239 244 249 225 250 297 219 204
195 191 196 200 249 345 209 228 197 99 183 224 255 237 245 255 263 245 250 275 337 316 331 338 353 304 276 254 271 276 260 269 276 309 316 291 199 194 210 209 230 286 200 210 219
203 199 202 179 156 200 227 231 202 234 197 183 220 229 232 234 255 254 269 251 254 288 281 24 299 333 285 283 285 278 267 262 287 294 316 284 281 220 215 213 229 226 221 212 210
Height
3197 3198 3198 3198 3199 3199 3199 3199 3198 3198 3198 3198 3197 3195 3195 3195 3198 3201 3204 3207 3208 3209 3210 3210 3211 3211 3209 3208 3208 3208 3210 3212 3214 3216 3214 3214 3209 3208 3207 3205 3203 3202 3202 3198 3196
3197 3197 3198 3198 3199 3199 3199 3198 3198 3198 3197 3197 3196 3195 3194 3194 3195 3198 3203 3204 3206 3207 3209 3210 3211 3211 3209 3208 3209 3209 3210 3213 3210 3214 3214 3215 3215 3212 3207 3207 3207 3207 3203 3199 3199
3195 3196 3197 3197 3198 3198 3198 3197 3197 3197 3196 3196 3195 3195 3194 3194 3195 3196 3199 3202 3203 3205 3207 3208 3210 3210 3208 3209 3210 3209 3209 3211 3211 3213 3211 3214 3216 3212 3209 3208 3209 3208 3204 3202 3201
3193 3194 3195 3195 3195 3196 3196 3196 3196 3196 3195 3195 3194 3194 3193 3194 3197 3196 3197 3199 3201 3203 3206 3207 3208 3209 3209 3207 3207 3206 3206 3206 3210 3211 3210 3208 3209 3205 3207 3207 3206 3207 3205 3204 3203
3190 3191 3192 3193 3193 3194 3194 3194 3194 3194 3194 3193 3193 3193 3193 3194 3195 3196 3196 3197 3199 3201 3204 3205 3206 3208 3208 3207 3206 3206 3204 3204 3205 3206 3205 3206 3206 3205 3203 3204 3205 3207 3205 3203 3204
3187 3188 3189 3190 3191 3191 3192 3192 3192 3192 3192 3192 3191 3191 3192 3193 3193 3194 3195 3195 3197 3199 3201 3203 3205 3204 3204 3206 3206 3207 3202 3201 3201 3200 3202 3203 3204 3203 3202 3203 3203 3205 3205 3204 3204
3183 3185 3186 3187 3188 3189 3190 3190 3190 3190 3190 3190 3190 3189 3190 3192 3190 3191 3193 3194 3195 3197 3199 3201 3201 3202 3203 3204 3206 3205 3202 3197 3196 3199 3204 3206 3205 3203 3203 3201 3201 3203 3204 3205 3206
3179 3180 3182 3183 3184 3186 3187 3187 3188 3188 3187 3188 3188 3188 3188 3188 3187 3190 3191 3193 3194 3195 3197 3199 3200 3201 3201 3202 3203 3201 3199 3201 3205 3205 3205 3207 3207 3204 3201 3200 3200 3204 3203 3204 3206
3174 3176 3177 3179 3180 3182 3183 3184 3185 3185 3185 3186 3186 3186 3186 3186 3187 3188 3188 3190 3192 3193 3195 3197 3198 3199 3200 3199 3201 3201 3199 3198 3199 3201 3202 3203 3203 3204 3202 3203 3207 3206 3202 3203 3203
3169 3171 3173 3174 3176 3177 3179 3180 3181 3181 3182 3183 3183 3187 3185 3186 3186 3185 3187 3188 3190 3191 3193 3194 3195 3195 3196 3197 3199 3200 3200 3199 3197 3195 3196 3199 3200 3202 3203 3204 3204 3205 3201 3202 3200
3164 3166 3168 3170 3171 3174 3176 3177 3180 3179 3179 3180 3181 3182 3183 3183 3182 3184 3185 3186 3187 3188 3190 3192 3192 3191 3192 3195 3197 3199 3199 3197 3193 3190 3191 3191 3191 3194 3198 3199 3199 3199 3196 3198 3198
3160 3161 3163 3165 3167 3170 3172 3172 3175 3174 3174 3175 3177 3177 3180 3180 3179 3178 3184 3185 3185 3185 3187 3189 3186 3187 3191 3192 3195 3196 3198 3194 3191 3191 3191 3188 3187 3189 3189 3190 3192 3193 3192 3194 3193
3155 3157 3159 3161 3163 3167 3169 3168 3170 3169 3170 3171 3173 3173 3177 3178 3176 3177 3181 3181 3183 3184 3184 3186 3183 3186 3189 3189 3190 3191 3194 3192 3191 3190 3190 3187 3185 3184 3183 3186 3186 3189 3190 3191 3190
3150 3152 3155 3157 3161 3162 3163 3164 3165 3165 3167 3166 3167 3168 3171 3173 3171 3174 3176 3180 3181 3182 3183 3183 3181 3184 3186 3186 3187 3186 3189 3189 3188 3190 3188 3188 3184 3182 3180 3180 3181 3183 3185 3187 3188
3144 3147 3149 3154 3156 3158 3159 3161 3163 3166 3167 3164 3162 3162 3164 3167 3170 3170 3172 3175 3176 3179 3182 3179 3179 3182 3184 3184 3184 3183 3184 3186 3187 3185 3184 3183 3184 3177 3178 3177 3179 3179 3180 3185 3186
3140 3142 3144 3149 3152 3153 3155 3159 3162 3166 3160 3158 3158 3157 3160 3163 3165 3168 3169 3173 3175 3176 3177 3176 3176 3178 3179 3179 3179 3180 3180 3180 3181 3181 3181 3180 3177 3174 3173 3172 3174 3177 3179 3181 3183
3136 3137 3140 3144 3148 3148 3153 3157 3160 3157 3158 3156 3156 3157 3156 3158 3160 3163 3165 3168 3170 3172 3172 3174 3172 3174 3176 3175 3176 3177 3178 3179 3180 3179 3178 3177 3174 3171 3169 3173 3173 3174 3176 3177 3178
3131 3133 3135 3140 3140 3144 3148 3153 3151 3150 3152 3152 3152 3154 3157 3159 3157 3159 3161 3163 3166 3168 3170 3170 3170 3170 3172 3173 3174 3175 3176 3177 3181 3183 3177 3175 3172 3171 3170 3169 3170 3174 3174 3177 3178
3128 3130 3132 3134 3136 3140 3144 3145 3143 3147 3150 3151 3150 3152 3154 3153 3155 3155 3157 3158 3161 3164 3167 3166 3164 3165 3167 3170 3172 3170 3171 3174 3174 3175 3175 3173 3170 3169 3170 3169 3168 3169 3176 3177 3176
3126 3127 3129 3130 3132 3136 3138 3137 3139 3145 3146 3148 3148 3150 3150 3150 3150 3151 3153 3155 3156 3159 3161 3162 3163 3162 3164 3166 3163 3165 3169 3171 3170 3171 3174 3170 3167 3166 3167 3170 3164 3166 3169 3171 3164
3123 3125 3127 3128 3130 3131 3131 3133 3138 3143 3146 3147 3147 3147 3148 3149 3150 3150 3153 3154 3153 3154 3156 3158 3161 3157 3160 3161 3160 3162 3163 3166 3167 3166 3167 3172 3166 3163 3167 3168 3166 3166 3169 3169 3173
3121 3124 3126 3128 3130 3129 3130 3132 3136 3137 3142 3143 3144 3144 3145 3145 3145 3146 3148 3149 3146 3144 3149 3153 3155 3154 3154 3158 3159 3160 3161 3161 3161 3163 3164 3163 3165 3163 3166 3166 3165 3164 3161 3162 3154
3121 3122 3123 3125 3126 3127 3128 3129 3131 3133 3137 3139 3141 3140 3141 3142 3145 3143 3144 3146 3144 3142 3144 3147 3149 3150 3150 3154 3155 3155 3156 3157 3157 3157 3158 3159 3161 3160 3158 3163 3163 3165 3164 3167 3164
3120 3122 3123 3123 3123 3124 3126 3127 3128 3130 3132 3135 3137 3138 3138 3139 3141 3141 3141 3142 3142 3142 3142 3144 3144 3145 3148 3150 3152 3153 3153 3154 3153 3155 3153 3153 3155 3156 3153 3159 3161 3161 3161 3157 3157
3117 3119 3120 3121 3121 3121 3125 3126 3126 3128 3131 3132 3134 3135 3137 3137 3138 3141 3139 3139 3141 3142 3142 3143 3144 3144 3145 3147 3148 3151 3152 3150 3149 3152 3150 3149 3154 3155 3156 3155 3155 3158 3157 3155 3158
3113 3116 3118 3119 3120 3121 3122 3124 3125 3127 3128 3129 3131 3132 3133 3134 3134 3137 3137 3139 3140 3142 3142 3142 3142 3142 3142 3143 3145 3148 3149 3148 3148 3149 3147 3145 3146 3150 3155 3158 3158 3156 3153 3152 3153
3113 3116 3118 3119 3119 3118 3121 3122 3123 3124 3126 3127 3128 3129 3129 3131 3133 3135 3133 3136 3139 3140 3140 3141 3141 3140 3140 3141 3141 3144 3148 3149 3147 3146 3149 3147 3143 3145 3146 3149 3154 3155 3155 3156 3158